Regional Weather Roundup
Issued by NWS Northern Indiana

Home | Current Version | Previous Version | Graphics & Text | Print | Product List | Glossary On
Versions: 1 2 3 4 5 6 7 8 9 10 11 12 13 14 15 16 17 18 19 20 21 22 23 24 25 26 27 28 29 30 31 32 33 34 35 36 37 38 39 40 41 42 43 44 45 46 47 48 49 50
000
ASUS43 KIWX 240600
RWRIWX

KIWX WEATHER ROUNDUP
NATIONAL WEATHER SERVICE NORTHERN INDIANA
100 AM EST FRI FEB 24 2017

NOTE: "FAIR" INDICATES FEW OR NO CLOUDS BELOW 12,000 FEET WITH NO
SIGNIFICANT WEATHER AND/OR OBSTRUCTIONS TO VISIBILITY.

* THESE STATIONS ARE NOT UNDER NWS QUALITY CONTROL. THEY ALSO MAY NOT
  REPORT WEATHER SUCH AS PRECIPITATION OR FOG.

INZ001>027-240700-
NORTHERN INDIANA

CITY           SKY/WX    TMP DP  RH WIND       PRES   REMARKS
MICHIGAN CITY* CLOUDY    46  46 100 E3        29.65F FOG
KNOX*          CLOUDY    50  34  53 E9        29.64F
SOUTH BEND     MOCLDY    48  46  93 E12       29.66F
6HR MIN TEMP:  41; 6HR MAX TEMP:  48; 6HR PCP:  0.15;

GOSHEN         CLOUDY    52  45  77 SE10      29.69F
6HR MIN TEMP:  48; 6HR MAX TEMP:  52; 6HR PCP:  0.10;

ANGOLA*        CLOUDY    46  45  93 E12       29.73R
FORT WAYNE     CLOUDY    53  50  89 NE5       29.70S
6HR MIN TEMP:  53; 6HR MAX TEMP:  57; 6HR PCP: TRACE;

PERU/GRISSOM   CLOUDY    57  57 100 SE8       29.66S
6HR MIN TEMP:  54; 6HR MAX TEMP:  57;


$$
INZ028>050-240700-
CENTRAL INDIANA

CITY           SKY/WX    TMP DP  RH WIND       PRES   REMARKS
LAFAYETTE      CLOUDY    57  54  89 NE3       29.65R
6HR MIN TEMP:  50; 6HR MAX TEMP:  57;

KOKOMO*        MOCLDY    58  54  86 S9        29.69S
6HR MIN TEMP:  54; 6HR MAX TEMP:  58; 6HR PCP: TRACE;

MUNCIE*        PTCLDY    61  54  77 S7        29.69S
6HR MIN TEMP:  55; 6HR MAX TEMP:  61;

INDIANAPOLIS   CLOUDY    60  55  83 SE13      29.66S
6HR MIN TEMP:  60; 6HR MAX TEMP:  65;


$$
MIZ043>046-050>051-056>058-064>065-071>073-077>080-240700-
SOUTHWEST LOWER MICHIGAN

CITY           SKY/WX    TMP DP  RH WIND       PRES   REMARKS
BATTLE CREEK   CLOUDY    44  43  96 E8        29.73F
6HR MIN TEMP:  44; 6HR MAX TEMP:  51; 6HR PCP:  0.17;

BENTON HARBOR  CLOUDY    48  45  89 E9G20     29.67F
6HR MIN TEMP:  38; 6HR MAX TEMP:  48; 6HR PCP:  0.21;

COLDWATER*     MIX PCPN  47  43  86 E16G23    29.73S
6HR MIN TEMP:  47; 6HR MAX TEMP:  52;

HILLSDALE*     DRIZZLE   43  41  93 E17G23    29.74S
HOLLAND        LGT RAIN  41  38  89 E13       29.72F
6HR MIN TEMP:  41; 6HR MAX TEMP:  46; 6HR PCP:  0.08;

KALAMAZOO      LGT RAIN  46  42  86 NE7       29.72F
6HR MIN TEMP:  46; 6HR MAX TEMP:  50; 6HR PCP:  0.18;

STURGIS*       DRIZZLE   48  46  94 E14       29.69F
6HR MIN TEMP:  47; 6HR MAX TEMP:  49; 6HR PCP:  0.15;

THREE RIVERS*  RAIN      47  45  90 E8        29.71F
6HR MIN TEMP:  46; 6HR MAX TEMP:  51;


$$
OHZ001>008-015>018-024>025-240700-
NORTHWEST OHIO

CITY           SKY/WX    TMP DP  RH WIND       PRES   REMARKS
DEFIANCE       CLOUDY    46  42  86 E15G22    29.75R
6HR MIN TEMP:  46; 6HR MAX TEMP:  58; 6HR PCP:  0.01;

FINDLAY        CLOUDY    52  46  80 NE12      29.73R
6HR MIN TEMP:  52; 6HR MAX TEMP:  60;

TOLEDO EXPRESS CLOUDY    43  42  97 E14       29.76F
6HR MIN TEMP:  43; 6HR MAX TEMP:  58; 6HR PCP:  0.02;

TOLEDO METCALF CLOUDY    43  42  97 NE10      29.79F
6HR MIN TEMP:  43; 6HR MAX TEMP:  60; 6HR PCP:  0.07;

LIMA           CLOUDY    58  55  90 S8        29.71F
6HR MIN TEMP:  56; 6HR MAX TEMP:  59;


$$
AND FOR LAKE MICHIGAN COASTAL AND OPEN LAKE BUOY OBSERVATIONS

STATION/POSITION TEMP    WIND        PRES    VSBY  WAVE
                 AIR SEA DIR/SP/G                  HT/PER
                 (F)     (DEG/KT/KT) (MB)    (MI)  (FT/S)
CALUMET HARBOR    38     360/  8/ 11 1004.0F
MICHIGAN CITY     40      30/  4/  6   N/A
BURNS HARBOR      36     360/  7/ 12 1005.1F
SAINT JOSEPH      46      70/  2/  7 1005.8

$$
&&




USA.gov is the U.S. government's official web portal to all federal, state and local government web resources and services.